Location: Azul
(36.7830°S, 59.8500°W)
Time: 01:33:51
(UTC-03:00)

ISS - Pass Details

Date: 12 June 2019
Orbit: 407 x 418 km, 51.6° (Epoch: 27 June)

Event Time Altitude Azimuth Distance (km) Brightness Sun altitude
Exits shadow 06:23:08 42° 162° (SSE) 618 -3.0 -20.5°
Maximum altitude 06:23:27 43° 144° (SE) 602 -2.9 -20.5°
Drops below altitude 10° 06:26:41 10° 70° (ENE) 1,494 0.3 -19.8°
Sets 06:28:50 0° 63° (ENE) 2,349 1.5 -19.4°
